"Pseudo-MPEC" for ZTF01sT

Created 2018 Dec 11 19:18:11 UT using Find_Orb

Click here for an explanation of pseudo-MPECs

 
 Astrometry: 
     ZTF01sT  C2018 12 04.29128904 24 21.65 +16 41 44.7                UNEOCPI41
     ZTF01sT  C2018 12 04.29174904 24 26.70 +16 42 53.1          17.77RUNEOCPI41
     ZTF01sT  C2018 12 04.29209604 24 30.28 +16 43 41.8          17.77RUNEOCPI41

Station data:
(I41) Palomar Mountain--ZTF  (N33.357340 W116.859780)  US/California. 1.2-m
   f/2.44 Oschin Schmidt + CCD.

Orbital elements:  ZTF01sT
   Perigee 2018 Dec 3.411578 +/- 36.4 TT =  9:52:40 (JD 2458455.911578)
Epoch 2018 Dec  4.0 TT = JDT 2458456.5                        AutoNEOCP
M 146.74995842 +/- 27               (J2000 equator)
n 249.39565043 +/- 0.438            Peri.  200.83900 +/- 52
a 53952.4191 +/- 5.24e+7            Node    39.04495 +/- 60
e   0.6643589 +/- 0.238             Incl.   35.69197 +/- 2.7
P2078.59m/1.443d           H 34.1   G  0.15   U 12.2  SR
q 18108.6452 +/- 2.41e+7    Q 89796.1931 +/- 7.46e+9
From 3 observations 2018 Dec. 4 (69.7 sec); mean residual 0".83
Residuals in arcseconds: 
181204 I41  .52-  .45-    181204 I41  1.3+  1.1+    181204 I41  .73-  .64-    

Ephemerides (geocentric):
Date (UTC) HH   RA              Dec         delta   r     elong  mag " sig PA
---- -- -- --  -------------   -----------  ------ ------ -----  --- ---- ---
2018 12 11 19  06 07 10.246   +29 47 37.67   64036 .98506 166.3 18.0  62d   9
2018 12 11 20  06 33 46.126   +31 45 13.62   58449 .98501 160.3 18.0  61d  10
2018 12 11 21  07 07 50.256   +33 39 54.70   52132 .98495 153.0 18.0  58d  14
2018 12 11 22  07 53 54.697   +35 13 55.86   45019 .98487 143.4 18.0  57d  14
2018 12 11 23  09 00 18.103   +35 31 40.51   37083 .98478 129.9 17.9  57d  14
2018 12 12 00  10 41 18.882   +31 30 22.31   28522 .98468 108.6 18.0  59d  13
2018 12 12 01  13 14 07.554   +14 02 51.89   20675 .98457  69.6 19.0  69d  13
2018 12 12 02  16 50 38.427   -21 44 43.10   18555 .98449   5.8 38??  98d   6
2018 12 12 03  20 41 20.419   -35 40 16.35   24640 .98449  46.1 21?? 100d 177
2018 12 12 04  22 52 29.921   -30 41 57.79   33193 .98454  73.8 19.8 104d 174
2018 12 12 05  00 00 31.134   -24 12 44.59   41473 .98460  90.1 19.5 108d 172
2018 12 12 06  00 42 19.689   -18 48 40.76   48968 .98465 101.2 19.4 111d 171
2018 12 12 07  01 11 41.277   -14 25 05.29   55643 .98471 109.4 19.4 113d 171
2018 12 12 08  01 34 12.314   -10 45 44.80   61557 .98476 116.0 19.4 114d 171
2018 12 12 09  01 52 32.926   -07 38 16.73   66776 .98481 121.4 19.4 115d 171
2018 12 12 10  02 08 09.385   -04 54 10.88   71360 .98485 126.2 19.4 115d 171
2018 12 12 11  02 21 52.794   -02 27 35.72   75358 .98489 130.3 19.4 115d 171
2018 12 12 12  02 34 15.769   -00 14 22.85   78811 .98493 134.1 19.4 114d 171
2018 12 12 13  02 45 40.454   +01 48 28.62   81751 .98496 137.6 19.4 112d 171
2018 12 12 14  02 56 22.718   +03 43 14.41   84203 .98499 140.8 19.4 111d 171
2018 12 12 15  03 06 34.518   +05 31 39.42   86188 .98501 143.9 19.4 108d 172
2018 12 12 16  03 16 25.317   +07 15 07.08   87720 .98503 146.8 19.3 108d 172
2018 12 12 17  03 26 02.997   +08 54 45.71   88813 .98505 149.7 19.3 107d 172
2018 12 12 18  03 35 34.475   +10 31 32.94   89473 .98506 152.5 19.2 105d 172
2018 12 12 19  03 45 06.167   +12 06 18.86   89705 .98507 155.3 19.1  99d 174
2018 12 12 20  03 54 44.369   +13 39 48.45   89512 .98508 158.0 19.0  96d 174
2018 12 12 21  04 04 35.617   +15 12 43.40   88892 .98508 160.8 18.9  94d 175
2018 12 12 22  04 14 47.054   +16 45 43.60   87840 .98508 163.7 18.8  89d 176
2018 12 12 23  04 25 26.888   +18 19 28.37   86349 .98507 166.6 18.7  82d 179
2018 12 13 00  04 36 44.974   +19 54 37.44   84407 .98506 169.6 18.5  76d   2
2018 12 13 01  04 48 53.641   +21 31 51.62   82000 .98504 172.7 18.3  69d   6
2018 12 13 02  05 02 08.917   +23 11 52.84   79107 .98502 176.0 Sha   66d   9
2018 12 13 03  05 16 52.442   +24 55 22.89   75704 .98500 178.1 Sha   65d   9
2018 12 13 04  05 33 34.594   +26 42 59.01   71760 .98496 175.3 Sha   64d   9
2018 12 13 05  05 52 59.832   +28 35 01.97   67234 .98492 170.8 18.0  63d   9
2018 12 13 06  06 16 16.316   +30 31 04.88   62080 .98488 165.5 18.0  61d   9
2018 12 13 07  06 45 14.093   +32 28 30.30   56237 .98482 159.1 18.0  59d  13
2018 12 13 08  07 23 01.148   +34 18 35.60   49640 .98476 151.1 18.0  58d  14
2018 12 13 09  08 15 15.782   +35 34 31.25   42229 .98468 140.4 17.9  57d  14
2018 12 13 10  09 32 14.804   +34 50 52.47   34021 .98459 124.7 17.9  57d  14
2018 12 13 11  11 30 14.209   +27 27 00.72   25444 .98448  98.6 18.1  62d  13
2018 12 13 12  14 24 48.979   +01 55 45.46   18875 .98437  49.8 20??  71d  13
2018 12 13 13  18 21 07.927   -30 52 46.14   20110 .98431  15.3 27?? 106d   2
2018 12 13 14  21 39 51.431   -34 36 01.19   27688 .98434  56.7 20?? 100d 175
2018 12 13 15  23 21 33.977   -28 15 46.42   36270 .98439  79.2 19.7 105d 172
2018 12 13 16  00 17 32.988   -22 07 26.11   44280 .98444  93.2 19.5 109d 171
2018 12 13 17  00 53 53.612   -17 07 04.11   51472 .98450 103.0 19.5 112d 171
2018 12 13 18  01 20 21.261   -13 01 06.00   57862 .98455 110.6 19.5 113d 171